Location: Kott?ru
(16.6209°N, 80.6208°E)
Time: 21:05:02
(UTC+00:00)

Cosmos 372 Rocket - Pass Details

Date: 18 September 2020
Orbit: 739 x 767 km, 74.1° (Epoch: 27 October)

Event Time Altitude Azimuth Distance (km) Brightness Sun altitude
Rises 13:34:44 0° 195° (SSW) 3,219 7.3 -14.7°
Reaches altitude 10° 13:37:06 10° 196° (SSW) 2,295 6.6 -15.2°
Maximum altitude 13:42:19 80° 283° (WNW) 780 4.1 -16.5°
Drops below altitude 10° 13:47:33 10° 10° (N) 2,298 6.4 -17.7°
Sets 13:49:55 0° 12° (NNE) 3,223 7.2 -18.3°
